User: anonymous   Login
Location: Rounton
(54.4000°N, 1.3500°W)
Time: 14:17:24
(UTC+01:00)
Language:

IRIDIUM 33 DEB - Orbit

View from above orbital plane
View from above orbital plane
View from above satellite
View from above satellite

Ground track
Ground track

The orbit data is extracted from the following two-line orbital elements,

1 35296U 97051PL  24199.23514015  .00052906  00000-0  66017-2 0  9997
2 35296  86.2986 183.1680 0001209  33.1998 326.9300 14.82137693802791
Epoch (UTC): 17 July 2024 05:38:36
Eccentricity: 0.0001209
inclination: 86.2986°
perigee height: 622 km
apogee height: 623 km
right ascension of ascending node: 183.1680°
argument of perigee: 33.1998°
revolutions per day: 14.82137693
mean anomaly at epoch: 326.9300°
orbit number at epoch: 80279

The dashed part of the orbit path shows where the satellite is in the earth's shadow,  

DLR